Wind_Speed
3 3 7 10 12 13 13 14 14 14 15 12 7 8 9 6 4 4 3 4 4 1 1 4 3 4 2 2 2 3 2 2 2 4 6 8 10 10 10 12 12 11 10 8 8 9 9 10 10
4 3 6 9 12 13 14 17 15 17 20 16 11 10 10 8 7 8 7 8 8 5 3 0 2 3 3 4 5 3 2 3 3 3 4 6 8 9 9 9 10 9 9 8 7 7 8 8 8
7 5 6 7 10 13 18 17 14 18 22 21 17 10 9 9 10 10 11 10 10 7 4 1 2 3 2 4 6 6 5 4 4 3 3 3 6 8 8 7 8 9 9 8 7 6 8 8 9
11 8 7 10 10 13 18 18 18 21 23 23 18 13 12 10 12 11 10 8 4 3 4 3 3 3 1 1 5 6 7 5 5 4 3 3 3 5 7 6 6 7 7 8 6 7 6 7 8
15 12 10 12 12 14 16 17 18 22 22 19 19 17 16 17 14 15 16 7 4 2 2 3 2 1 1 1 3 5 6 6 6 4 4 3 3 3 5 6 6 5 6 6 6 5 7 8 8
18 16 12 14 18 18 16 16 18 23 24 20 18 16 18 20 18 13 10 7 2 2 1 1 2 3 4 6 3 5 7 7 6 5 5 4 4 3 4 4 5 6 5 5 6 6 7 7 8
22 19 14 17 22 21 21 18 20 22 23 22 17 15 16 16 17 16 7 4 2 1 1 2 2 1 4 5 5 6 8 8 7 7 6 5 5 6 6 6 6 6 6 6 5 5 6 7 7
26 23 18 18 22 26 24 21 20 18 21 19 17 13 13 15 16 16 13 6 4 3 1 1 0 1 2 3 4 6 7 9 9 9 8 7 6 5 5 5 7 8 9 8 7 6 5 6 8
31 27 19 19 23 29 29 28 20 16 18 18 17 18 16 17 17 16 14 8 7 6 4 4 3 1 0 1 3 4 5 7 8 9 9 8 7 7 7 7 7 8 9 9 9 7 7 7 8
33 28 24 25 26 30 33 31 22 21 21 19 16 20 17 17 18 20 16 12 10 7 6 6 4 2 3 4 3 4 5 6 8 9 10 10 10 9 8 9 9 10 10 10 11 11 9 8 9
34 29 30 26 30 31 33 33 27 24 23 20 20 20 19 16 13 15 12 12 11 10 9 8 6 5 5 6 6 6 7 7 9 10 12 11 13 11 11 10 10 11 11 12 12 12 13 13 12
37 34 32 32 33 32 34 35 30 25 29 23 23 26 21 16 9 12 13 14 12 12 12 10 8 7 7 8 9 9 10 10 10 11 13 14 14 13 12 10 10 11 13 13 13 13 13 14 14
45 41 35 38 37 36 35 36 34 29 27 26 27 30 19 17 20 17 16 17 16 15 14 14 11 10 11 9 8 11 11 12 12 12 13 14 14 13 13 11 10 10 11 12 14 14 15 16 17
47 47 41 43 41 37 34 36 33 32 26 27 28 27 22 20 20 21 17 16 18 18 19 17 15 15 15 13 9 9 11 13 14 15 14 13 13 13 13 13 12 11 10 10 12 14 16 18 18
43 49 47 43 42 36 34 37 31 34 29 30 31 31 25 20 22 22 19 16 17 21 22 21 21 19 17 17 13 11 12 14 14 13 13 14 14 13 14 14 14 14 14 14 14 14 15 17 19
35 44 42 44 44 35 36 32 33 33 32 34 35 33 25 21 24 24 22 21 21 19 20 20 21 21 19 18 18 15 14 15 16 16 15 14 13 14 16 17 16 16 18 19 19 19 21 21 22
28 32 35 41 40 36 34 29 35 33 34 36 37 35 29 26 26 26 26 27 26 25 25 24 23 22 21 20 20 20 19 19 20 20 20 18 18 20 21 22 22 22 21 22 23 25 27 28 28
29 28 29 33 37 34 33 30 32 31 34 34 38 34 30 29 28 29 30 28 29 31 28 27 27 26 24 23 23 24 25 24 25 24 24 24 24 26 28 28 26 27 26 28 29 29 32 33 33
26 27 30 35 34 32 32 34 28 32 35 35 34 33 31 29 30 29 32 32 33 31 29 27 27 27 27 27 26 27 27 28 28 28 27 28 29 29 30 29 29 31 33 34 34 35 36 37 36
29 31 32 37 34 30 32 30 28 32 38 38 35 33 29 30 31 33 33 31 30 28 28 27 29 28 27 27 28 29 29 30 30 32 31 32 33 32 34 33 34 37 38 44 44 40 35 37 45
29 28 31 30 31 29 29 31 29 31 35 39 39 37 34 34 31 32 33 31 29 26 26 26 27 29 29 27 27 28 30 31 32 33 33 32 34 34 35 34 33 35 39 34 39 34 27 27 30
30 30 34 33 32 31 31 26 31 33 35 36 38 37 37 36 36 31 29 29 26 25 26 26 26 25 24 23 23 25 28 29 31 32 32 31 30 32 33 34 34 38 40 40 38 37 38 36 36
27 31 30 30 30 29 29 28 26 31 33 32 32 34 37 37 35 32 32 32 29 28 26 25 24 25 28 27 27 26 25 24 26 27 29 30 31 33 33 32 32 32 32 33 35 36 37 39 41
26 28 27 27 23 23 24 24 29 32 28 29 28 24 30 38 34 31 33 36 37 29 25 23 24 25 25 24 25 23 25 25 26 25 25 25 27 28 29 30 30 32 35 38 40 41 40 41 42
29 29 21 19 19 16 27 24 20 27 22 26 24 25 30 33 34 34 36 38 32 31 28 27 29 28 26 28 28 30 30 32 32 33 33 33 31 31 31 33 36 38 40 39 41 43 43 43 45
30 32 17 17 17 21 28 22 22 30 21 23 27 29 30 33 35 32 34 34 32 36 38 34 32 31 29 30 32 34 32 33 34 35 38 41 36 35 37 39 40 41 43 44 44 45 45 47 47
35 34 28 25 25 19 14 23 24 23 25 24 26 27 29 31 34 36 38 38 39 40 36 33 33 33 33 33 33 36 38 37 37 39 39 37 38 39 39 40 43 43 43 43 45 47 47 48 48
33 30 28 28 22 19 21 20 18 26 28 30 32 33 32 33 35 36 38 39 38 37 36 35 35 36 37 38 39 40 41 40 37 34 35 38 40 40 40 40 41 42 44 46 47 48 49 49 48
37 35 32 23 24 18 20 17 27 29 26 27 29 29 29 30 30 31 32 36 37 38 39 39 38 39 40 41 42 42 42 38 40 38 39 41 43 42 42 43 44 45 46 46 46 47 47 46 44
32 28 29 29 26 27 27 20 27 27 26 27 30 29 30 31 33 35 35 36 38 38 38 38 40 40 40 37 44 39 39 45 41 41 44 45 43 43 45 45 45 42 42 43 43 42 40 37 36
Wind_Direction
183 185 166 173 183 180 182 187 172 178 180 180 182 210 220 207 220 217 233 259 269 220 90 100 118 146 174 198 179 166 155 131 113 111 109 109 103 97 87 81 76 78 88 99 116 130 136 138 137
198 201 177 174 184 188 204 192 182 186 189 195 207 231 246 249 252 254 244 252 258 265 250 235 116 129 178 210 211 217 195 168 139 128 124 118 112 102 94 93 92 89 95 104 121 139 145 148 149
231 218 216 189 186 189 207 194 182 181 193 203 215 228 263 265 254 254 243 259 259 245 238 209 86 89 177 199 207 209 207 207 180 164 142 121 117 115 112 110 101 104 108 114 127 147 157 160 164
244 236 230 216 201 214 212 197 186 182 199 211 218 243 267 263 269 268 256 241 241 234 187 121 94 91 83 226 211 208 206 208 198 185 155 151 154 137 131 132 124 115 108 115 132 154 167 170 174
242 245 239 232 221 220 214 210 206 195 204 205 221 248 268 277 281 272 276 238 263 213 167 145 100 149 231 250 204 212 213 212 218 203 187 186 183 179 163 158 152 137 119 126 139 147 165 177 187
239 244 241 225 236 226 221 208 207 198 201 212 238 248 264 278 287 281 250 239 255 274 281 238 240 240 269 277 247 218 207 208 211 222 213 202 194 201 194 182 180 166 171 156 156 163 171 182 194
240 242 240 227 229 239 230 218 213 211 210 229 231 259 273 276 275 277 250 238 205 277 310 288 263 240 234 244 244 224 209 207 208 210 220 215 208 189 197 189 199 207 199 192 185 179 184 189 201
242 240 237 229 233 243 242 230 223 217 227 221 238 245 255 270 275 274 274 216 196 167 178 201 79 187 200 211 207 207 201 205 213 211 210 200 200 207 208 220 219 218 216 209 205 201 205 207 213
236 238 234 229 234 240 243 242 230 221 222 224 231 245 245 263 272 275 268 238 205 193 197 207 157 118 212 181 182 204 217 221 224 223 217 217 211 208 211 223 235 240 235 223 218 212 218 220 228
234 233 233 227 229 237 244 242 231 225 227 228 227 236 246 259 278 279 253 231 229 221 219 222 228 252 280 259 234 222 228 242 244 243 238 233 226 223 225 225 231 239 241 242 230 221 218 223 229
232 228 229 230 230 232 243 248 239 230 232 228 217 228 243 260 258 252 219 220 225 225 220 225 234 264 274 261 253 242 243 247 254 253 254 251 242 233 231 231 235 241 243 240 239 231 226 229 230
230 228 224 229 235 232 235 246 245 233 234 233 225 230 221 225 229 246 224 228 232 228 226 223 243 267 286 280 262 253 249 255 252 253 256 256 253 242 238 233 238 243 248 250 248 248 242 239 235
229 226 222 229 235 236 235 243 247 239 235 231 231 229 229 229 251 257 243 243 243 244 238 235 244 258 274 275 278 273 264 261 253 257 259 258 258 254 248 244 242 242 248 253 253 250 250 243 243
229 223 224 229 233 238 239 245 250 246 235 237 237 239 242 246 261 261 252 242 246 249 250 246 246 250 258 262 273 279 268 266 259 257 256 259 264 268 265 260 252 247 251 254 258 257 258 257 252
232 223 225 234 235 240 239 242 249 250 238 234 237 244 246 254 259 267 269 265 260 252 255 255 251 249 253 256 257 265 268 264 259 255 255 258 257 260 268 267 264 260 255 253 254 256 257 259 258
222 224 231 232 231 236 242 244 245 247 240 231 238 247 251 250 258 266 269 271 273 280 282 271 264 249 249 250 251 258 259 261 260 255 252 252 253 256 261 262 261 261 259 257 253 252 252 253 254
220 219 222 227 229 232 237 235 243 242 240 235 237 244 251 253 262 266 267 275 287 293 294 288 278 262 251 250 250 253 254 257 260 257 257 259 264 267 268 271 268 264 263 264 263 261 259 255 251
226 218 220 229 228 229 231 215 239 238 237 235 238 244 246 254 262 263 265 272 283 290 287 287 280 274 264 253 250 254 254 253 259 260 261 262 264 267 267 269 271 274 270 264 259 258 258 260 260
214 212 216 221 225 227 230 229 235 235 235 233 227 232 241 249 252 262 269 276 281 280 280 277 272 268 267 263 256 253 257 258 258 262 265 265 268 273 271 257 270 276 276 272 268 265 265 263 262
206 210 214 223 224 226 231 235 232 230 232 233 233 237 240 234 248 263 271 272 272 274 273 271 269 266 264 264 262 260 257 258 262 265 265 265 268 269 271 276 278 281 284 279 273 271 267 272 264
209 210 218 224 226 229 232 238 230 232 234 236 239 241 237 243 246 253 263 266 267 269 268 266 263 262 260 258 257 256 257 260 263 263 265 266 267 266 270 274 277 288 289 267 290 281 277 278 277
212 211 217 224 226 232 229 236 233 230 231 234 237 237 237 243 250 249 251 256 254 254 260 261 262 261 260 260 261 258 256 259 260 262 266 268 271 274 275 278 277 278 285 296 302 308 306 303 297
209 213 218 223 228 223 232 223 258 244 232 232 235 239 241 238 238 238 250 250 254 259 253 259 263 269 268 265 265 265 266 265 265 262 264 268 271 271 272 277 281 284 288 292 295 296 297 296 295
217 215 217 221 223 234 242 227 241 251 240 239 241 239 238 241 245 252 247 256 259 246 252 264 273 277 275 270 259 265 261 263 263 263 263 264 266 270 272 276 281 286 288 292 295 295 292 291 291
208 200 198 207 216 216 242 227 218 246 234 226 230 222 221 226 232 241 249 248 247 254 256 271 276 272 271 269 262 258 258 259 263 266 270 269 270 270 273 279 282 285 287 290 292 292 292 293 293
211 205 201 218 227 231 241 225 228 238 229 223 227 226 230 237 242 249 257 266 252 254 261 272 268 265 266 265 266 265 267 267 267 268 269 267 266 266 272 278 284 289 290 291 292 291 292 292 291
201 205 201 203 213 207 244 236 244 246 244 242 243 244 246 245 244 251 255 256 261 268 270 264 258 259 262 266 267 271 269 268 269 272 269 265 269 275 277 281 284 285 287 289 290 290 289 289 288
204 216 217 223 233 233 253 249 245 246 246 248 247 251 252 252 252 253 255 257 258 258 259 260 259 259 261 264 267 267 268 270 272 274 274 274 277 283 283 285 287 287 286 286 286 286 286 286 286
212 220 222 217 224 229 240 257 236 250 243 243 246 250 255 259 260 261 262 264 262 260 261 261 261 262 263 265 266 264 266 264 276 278 277 279 282 285 286 287 284 282 283 283 282 282 282 282 283
213 221 244 240 253 256 235 237 243 236 241 247 250 253 256 258 260 261 261 262 264 264 263 263 264 263 265 265 267 257 268 277 277 279 281 282 283 285 286 284 284 283 281 280 281 282 283 284 283
Height
5912 5912 5913 5915 5919 5919 5919 5920 5920 5921 5923 5923 5923 5924 5925 5926 5927 5929 5927 5927 5927 5927 5927 5927 5928 5927 5926 5925 5926 5925 5926 5927 5927 5926 5926 5925 5924 5925 5925 5923 5924 5924 5924 5926 5926 5926 5926 5927 5927
5911 5913 5914 5914 5917 5917 5918 5918 5919 5920 5921 5922 5922 5922 5923 5924 5925 5926 5926 5927 5926 5926 5925 5925 5926 5926 5927 5926 5926 5925 5925 5926 5926 5926 5926 5925 5924 5924 5925 5924 5924 5925 5925 5926 5927 5927 5927 5928 5928
5910 5912 5914 5914 5915 5917 5916 5916 5918 5919 5920 5921 5921 5922 5922 5923 5923 5924 5924 5924 5924 5923 5923 5923 5923 5924 5926 5925 5925 5925 5925 5925 5926 5926 5925 5925 5925 5925 5925 5926 5925 5925 5925 5925 5926 5928 5928 5928 5929
5907 5910 5913 5913 5914 5915 5914 5915 5916 5917 5919 5920 5920 5921 5922 5922 5922 5922 5922 5922 5922 5922 5921 5921 5921 5922 5923 5923 5923 5924 5924 5925 5925 5926 5925 5925 5926 5926 5925 5926 5926 5926 5925 5926 5927 5927 5929 5929 5929
5904 5907 5909 5911 5912 5912 5913 5914 5915 5917 5918 5919 5920 5921 5921 5921 5922 5921 5921 5921 5920 5921 5920 5920 5920 5921 5921 5922 5921 5922 5923 5923 5925 5924 5924 5924 5925 5926 5926 5925 5926 5926 5926 5926 5926 5927 5928 5928 5929
5901 5904 5906 5908 5908 5909 5911 5913 5914 5914 5917 5919 5919 5920 5920 5920 5920 5919 5920 5919 5919 5919 5919 5919 5920 5920 5920 5920 5919 5920 5921 5922 5923 5924 5924 5924 5924 5925 5925 5926 5926 5925 5926 5925 5925 5926 5927 5927 5928
5897 5900 5903 5904 5906 5906 5907 5910 5912 5914 5916 5917 5918 5919 5919 5919 5919 5918 5918 5918 5917 5917 5917 5918 5918 5918 5918 5919 5918 5918 5919 5920 5921 5922 5924 5924 5924 5923 5924 5923 5924 5925 5925 5925 5925 5926 5925 5926 5927
5893 5895 5899 5901 5901 5902 5903 5906 5910 5912 5913 5916 5916 5917 5918 5917 5916 5917 5917 5917 5917 5916 5916 5917 5917 5917 5916 5916 5917 5917 5917 5918 5920 5920 5921 5922 5923 5923 5923 5924 5923 5923 5924 5924 5924 5924 5925 5925 5925
5886 5891 5896 5897 5897 5897 5898 5901 5907 5910 5911 5913 5914 5915 5916 5915 5915 5916 5916 5916 5915 5915 5915 5916 5916 5916 5916 5916 5916 5917 5917 5917 5918 5918 5919 5920 5921 5921 5921 5922 5922 5922 5923 5923 5923 5923 5923 5923 5924
5881 5887 5891 5891 5891 5890 5891 5896 5903 5907 5907 5909 5912 5911 5912 5913 5913 5913 5913 5914 5914 5914 5914 5914 5914 5915 5916 5915 5915 5915 5915 5915 5916 5916 5917 5918 5918 5920 5920 5920 5920 5919 5920 5921 5921 5921 5921 5922 5922
5877 5882 5882 5885 5884 5885 5886 5890 5896 5902 5904 5906 5907 5908 5909 5911 5910 5910 5910 5911 5911 5912 5913 5913 5913 5914 5914 5913 5914 5914 5914 5915 5915 5914 5915 5915 5917 5917 5918 5918 5918 5918 5916 5917 5918 5918 5919 5919 5919
5869 5874 5876 5877 5877 5880 5882 5883 5889 5897 5898 5902 5903 5904 5906 5908 5908 5907 5908 5908 5909 5909 5910 5910 5911 5911 5912 5912 5912 5912 5913 5913 5912 5912 5912 5913 5914 5915 5915 5916 5916 5916 5915 5915 5916 5916 5917 5917 5917
5861 5865 5868 5868 5870 5873 5878 5879 5883 5889 5894 5898 5899 5900 5904 5905 5907 5905 5906 5906 5906 5906 5907 5908 5908 5909 5910 5910 5910 5910 5910 5910 5910 5910 5910 5911 5912 5913 5913 5914 5914 5914 5914 5913 5913 5913 5914 5914 5914
5850 5855 5860 5860 5864 5867 5874 5876 5879 5884 5890 5892 5894 5897 5900 5901 5902 5901 5902 5903 5903 5903 5904 5905 5906 5906 5907 5908 5908 5907 5908 5908 5907 5908 5909 5909 5909 5910 5911 5911 5912 5912 5912 5912 5911 5910 5910 5910 5910
5842 5848 5852 5855 5860 5864 5867 5870 5876 5878 5884 5886 5889 5892 5895 5898 5898 5897 5897 5897 5899 5900 5901 5902 5903 5903 5903 5904 5905 5905 5905 5905 5905 5905 5905 5906 5906 5907 5907 5908 5909 5910 5910 5909 5908 5907 5907 5906 5905
5835 5840 5845 5850 5853 5859 5861 5867 5869 5872 5878 5882 5884 5886 5890 5893 5892 5892 5893 5892 5893 5895 5896 5896 5897 5899 5900 5901 5902 5902 5902 5902 5903 5903 5903 5903 5903 5903 5903 5902 5904 5905 5906 5906 5905 5904 5903 5902 5901
5830 5834 5840 5843 5848 5852 5856 5862 5861 5867 5871 5876 5878 5881 5885 5888 5888 5888 5888 5888 5889 5890 5890 5890 5892 5894 5895 5897 5897 5897 5897 5898 5899 5899 5900 5900 5899 5899 5899 5898 5899 5900 5900 5900 5900 5900 5898 5897 5896
5825 5829 5834 5839 5842 5846 5851 5857 5856 5861 5865 5870 5873 5877 5881 5883 5883 5882 5883 5885 5885 5885 5886 5886 5886 5887 5889 5891 5891 5891 5892 5893 5894 5895 5895 5895 5894 5894 5893 5893 5893 5893 5893 5893 5892 5892 5890 5890 5891
5821 5826 5830 5832 5836 5841 5845 5849 5853 5856 5861 5864 5869 5873 5875 5877 5877 5879 5878 5879 5880 5880 5881 5881 5882 5882 5883 5883 5885 5885 5886 5888 5888 5890 5890 5890 5889 5889 5888 5887 5886 5886 5885 5885 5885 5884 5883 5883 5882
5817 5821 5825 5824 5832 5838 5840 5844 5848 5851 5855 5858 5863 5867 5869 5870 5873 5874 5874 5875 5874 5875 5876 5876 5877 5877 5878 5878 5879 5880 5880 5881 5882 5883 5883 5883 5883 5882 5881 5881 5879 5879 5878 5877 5876 5876 5873 5873 5872
5813 5817 5820 5824 5827 5832 5836 5837 5842 5845 5849 5853 5857 5860 5863 5864 5867 5868 5869 5869 5869 5870 5870 5870 5871 5872 5872 5872 5873 5874 5874 5874 5874 5875 5876 5876 5876 5875 5875 5874 5873 5873 5866 5866 5866 5867 5864 5866 5865
5809 5813 5814 5819 5824 5827 5831 5834 5835 5839 5843 5847 5851 5855 5857 5859 5861 5862 5863 5863 5865 5866 5866 5866 5866 5866 5866 5867 5868 5868 5869 5870 5869 5869 5869 5868 5868 5868 5868 5867 5867 5865 5864 5861 5856 5855 5855 5856 5856
5806 5807 5812 5815 5819 5822 5825 5830 5832 5832 5835 5841 5845 5849 5850 5851 5853 5855 5857 5858 5859 5861 5861 5861 5860 5860 5860 5861 5861 5861 5862 5863 5862 5862 5862 5862 5862 5861 5861 5860 5860 5858 5857 5855 5854 5852 5851 5850 5848
5800 5804 5808 5811 5816 5820 5821 5825 5827 5827 5831 5835 5838 5842 5844 5844 5846 5849 5850 5851 5852 5854 5855 5855 5855 5854 5855 5855 5855 5855 5856 5856 5857 5857 5857 5857 5856 5856 5855 5854 5853 5852 5851 5849 5847 5845 5844 5842 5840
5795 5800 5806 5812 5815 5822 5815 5820 5824 5819 5823 5827 5832 5834 5837 5840 5841 5843 5843 5842 5844 5846 5846 5846 5847 5847 5848 5848 5849 5849 5849 5850 5850 5850 5850 5850 5849 5849 5848 5847 5846 5845 5843 5841 5839 5837 5835 5833 5831
5791 5797 5808 5810 5813 5815 5811 5815 5816 5817 5820 5823 5826 5829 5832 5834 5836 5836 5836 5834 5834 5836 5835 5837 5839 5839 5840 5841 5842 5842 5842 5842 5841 5841 5841 5841 5840 5840 5839 5839 5837 5835 5833 5830 5828 5827 5825 5822 5820
5788 5791 5799 5801 5802 5807 5809 5808 5810 5813 5815 5818 5820 5822 5824 5826 5827 5828 5827 5827 5827 5826 5826 5828 5830 5831 5832 5833 5833 5833 5832 5832 5833 5832 5832 5831 5832 5831 5830 5829 5827 5825 5823 5821 5818 5815 5813 5810 5808
5786 5791 5795 5798 5804 5806 5804 5804 5809 5806 5809 5810 5811 5813 5815 5817 5818 5819 5817 5817 5817 5817 5818 5818 5819 5821 5822 5823 5823 5822 5822 5822 5822 5821 5822 5822 5821 5819 5818 5817 5815 5814 5812 5810 5807 5805 5802 5799 5796
5782 5785 5789 5795 5797 5801 5803 5803 5799 5800 5802 5803 5804 5805 5806 5807 5808 5808 5809 5808 5808 5808 5809 5809 5810 5810 5811 5811 5811 5810 5811 5812 5812 5811 5811 5810 5808 5807 5805 5804 5803 5802 5800 5798 5796 5794 5791 5789 5786
5775 5783 5784 5788 5792 5792 5795 5794 5792 5794 5795 5796 5796 5797 5797 5798 5798 5798 5798 5798 5798 5799 5800 5799 5799 5799 5800 5800 5798 5799 5800 5800 5801 5800 5800 5798 5797 5795 5794 5792 5790 5788 5786 5785 5783 5781 5779 5777 5776